Perryton, TX

6:43 PM CDT on September 22, 2019 (GMT -0500)
Perryton Ochiltree County

Weather History for KPYX - June, 2019

Change the Weather History Date:

Monday, June 10, 2019

  Actual Average Record
Temperature  
Mean Temperature 66 °F -  
Max Temperature 76 °F 83 °F 111 °F (1981)
Min Temperature 56 °F 56 °F 43 °F (1979)
Growing Degree Days 16 (Base 50)    
Moisture  
Dew Point 45 °F    
Average Humidity 52    
Maximum Humidity 82    
Minimum Humidity 23    
Precipitation  
Precipitation 0.00 in - - ()
Sea Level Pressure  
Sea Level Pressure 30.41 in    
Wind  
Wind Speed 6 mph (ENE)    
Max Wind Speed 10 mph    
Max Gust Speed 16 mph    
Visibility 10 miles    
Events      
Averages and records for this station are not official NWS values.
T = Trace of Precipitation, MM = Missing Value Source: NWS Daily Summary

Daily Weather History Graph

Daily Weather History Graph

Search for Another Location

Airport or City:

Astronomy

Jun. 10, 2019 Rise Set
Actual Time 6:24 AM CDT 9:00 PM CDT
Civil Twilight 5:54 AM CDT 9:30 PM CDT
Nautical Twilight 5:16 AM CDT 10:08 PM CDT
Astronomical Twilight 4:34 AM CDT 10:50 PM CDT
Moon 2:06 PM CDT (6/10) 2:23 AM CDT (6/10)
Length of Visible Light 15h 36m
Length of Day
14h 35m
First Quarter, 55% of the Moon is Illuminated
Jun 10
First Quarter
Jun 17
Full
Jun 25
Last Quarter
Jul 2
New
Jul 9
First Quarter

Hourly Weather History & Observations

Time (CDT) Temp. Dew Point Humidity Pressure Visibility Wind Dir Wind Speed Gust Speed Precip Events Conditions
12:15 AM 59.9 °F 50.4 °F 71% 30.41 in 10.0 mi North 9.2 mph - N/A   Overcast
12:35 AM 59.9 °F 50.7 °F 72% 30.42 in 10.0 mi North 5.8 mph - N/A   Overcast
12:55 AM 59.0 °F 50.5 °F 73% 30.42 in 10.0 mi NNE 6.9 mph - N/A   Overcast
1:15 AM 58.5 °F 50.2 °F 74% 30.42 in 10.0 mi NNE 8.1 mph - N/A   Overcast
1:35 AM 58.1 °F 49.8 °F 74% 30.42 in 10.0 mi NNE 6.9 mph - N/A   Overcast
1:55 AM 57.9 °F 50.0 °F 75% 30.43 in 10.0 mi NNE 5.8 mph - N/A   Overcast
2:15 AM 57.2 °F 50.2 °F 77% 30.43 in 10.0 mi North 6.9 mph - N/A   Overcast
2:35 AM 57.4 °F 50.2 °F 77% 30.44 in 10.0 mi NNE 5.8 mph - N/A   Overcast
2:55 AM 57.7 °F 50.0 °F 75% 30.44 in 10.0 mi NNE 5.8 mph - N/A   Overcast
3:15 AM 57.6 °F 50.2 °F 76% 30.45 in 10.0 mi NNE 4.6 mph - N/A   Overcast
3:35 AM 57.4 °F 50.9 °F 79% 30.45 in 10.0 mi NNE 3.5 mph - N/A   Overcast
3:55 AM 57.2 °F 51.1 °F 80% 30.45 in 10.0 mi Calm Calm - N/A   Overcast
4:15 AM 57.2 °F 51.4 °F 81% 30.46 in 10.0 mi Calm Calm - N/A   Overcast
4:35 AM 57.2 °F 51.8 °F 82% 30.45 in 10.0 mi NNE 5.8 mph - N/A   Overcast
4:55 AM 56.8 °F 50.9 °F 80% 30.46 in 10.0 mi NNE 4.6 mph - N/A   Overcast
5:15 AM 56.8 °F 50.9 °F 80% 30.47 in 10.0 mi North 4.6 mph - N/A   Overcast
5:35 AM 56.8 °F 50.9 °F 80% 30.49 in 10.0 mi North 3.5 mph - N/A   Overcast
5:55 AM 56.7 °F 50.5 °F 80% 30.49 in 10.0 mi NNE 4.6 mph - N/A   Overcast
6:15 AM 56.7 °F 50.4 °F 79% 30.49 in 10.0 mi North 5.8 mph - N/A   Overcast
6:35 AM 56.3 °F 50.2 °F 80% 30.49 in 10.0 mi North 4.6 mph - N/A   Overcast
6:55 AM 56.7 °F 50.0 °F 78% 30.50 in 10.0 mi Calm Calm - N/A   Overcast
7:15 AM 57.2 °F 50.2 °F 77% 30.51 in 10.0 mi North 3.5 mph - N/A   Overcast
7:35 AM 57.2 °F 50.5 °F 78% 30.50 in 10.0 mi NNW 4.6 mph - N/A   Overcast
7:55 AM 57.7 °F 50.5 °F 77% 30.50 in 10.0 mi North 3.5 mph - N/A   Overcast
8:15 AM 58.8 °F 50.2 °F 73% 30.50 in 10.0 mi North 3.5 mph - N/A   Mostly Cloudy
8:35 AM 60.4 °F 48.4 °F 64% 30.51 in 10.0 mi Calm Calm - N/A   Scattered Clouds
8:55 AM 61.7 °F 46.6 °F 58% 30.52 in 10.0 mi Calm Calm - N/A   Clear
9:15 AM 63.0 °F 45.1 °F 52% 30.51 in 10.0 mi Calm Calm - N/A   Clear
9:35 AM 63.9 °F 45.1 °F 51% 30.51 in 10.0 mi NNE 8.1 mph - N/A   Clear
9:55 AM 65.1 °F 45.0 °F 48% 30.50 in 10.0 mi NE 9.2 mph - N/A   Clear
10:15 AM 65.5 °F 42.6 °F 43% 30.50 in 10.0 mi NNE 8.1 mph - N/A   Clear
10:35 AM 66.2 °F 42.6 °F 42% 30.49 in 10.0 mi ENE 8.1 mph - N/A   Clear
10:55 AM 66.9 °F 41.4 °F 39% 30.49 in 10.0 mi ENE 6.9 mph - N/A   Clear
11:15 AM 67.8 °F 40.8 °F 37% 30.48 in 10.0 mi NE 10.4 mph - N/A   Clear
11:35 AM 68.9 °F 40.8 °F 36% 30.49 in 10.0 mi NE 4.6 mph - N/A   Clear
11:55 AM 69.4 °F 39.9 °F 34% 30.49 in 10.0 mi Calm Calm - N/A   Clear
12:15 PM 69.1 °F 39.7 °F 34% 30.48 in 10.0 mi Calm Calm - N/A   Clear
12:35 PM 69.8 °F 38.8 °F 32% 30.47 in 10.0 mi Calm Calm - N/A   Clear
12:55 PM 70.9 °F 39.4 °F 32% 30.46 in 10.0 mi East 4.6 mph - N/A   Clear
1:15 PM 71.2 °F 39.4 °F 31% 30.46 in 10.0 mi East 4.6 mph - N/A   Clear
1:35 PM 72.3 °F 39.9 °F 31% 30.45 in 10.0 mi ENE 9.2 mph 16.1 mph N/A   Clear
1:55 PM 73.2 °F 38.1 °F 28% 30.44 in 10.0 mi East 6.9 mph - N/A   Clear
2:15 PM 73.0 °F 35.6 °F 25% 30.43 in 10.0 mi NNE 4.6 mph - N/A   Clear
2:35 PM 73.8 °F 36.7 °F 26% 30.42 in 10.0 mi Calm Calm - N/A   Clear
2:55 PM 74.7 °F 37.0 °F 26% 30.42 in 10.0 mi East 6.9 mph - N/A   Clear
3:15 PM 74.5 °F 36.5 °F 25% 30.41 in 10.0 mi SE 9.2 mph - N/A   Clear
3:35 PM 74.7 °F 34.9 °F 23% 30.39 in 10.0 mi SE 5.8 mph - N/A   Clear
3:55 PM 74.7 °F 35.6 °F 24% 30.38 in 10.0 mi Calm Calm - N/A   Clear
4:15 PM 75.2 °F 37.6 °F 26% 30.37 in 10.0 mi East 4.6 mph - N/A   Clear
4:35 PM 75.6 °F 36.7 °F 24% 30.36 in 10.0 mi SSE 5.8 mph - N/A   Clear
4:55 PM 75.4 °F 35.6 °F 24% 30.36 in 10.0 mi SE 6.9 mph - N/A   Clear
5:15 PM 75.2 °F 35.2 °F 23% 30.34 in 10.0 mi SE 4.6 mph - N/A   Clear
5:35 PM 75.2 °F 35.4 °F 24% 30.33 in 10.0 mi SSE 5.8 mph - N/A   Clear
5:55 PM 75.0 °F 35.6 °F 24% 30.32 in 10.0 mi SE 8.1 mph - N/A   Clear
6:15 PM 74.8 °F 35.2 °F 24% 30.31 in 10.0 mi SE 6.9 mph - N/A   Clear
6:35 PM 74.5 °F 38.1 °F 27% 30.30 in 10.0 mi SE 9.2 mph - N/A   Clear
6:55 PM 73.8 °F 39.4 °F 29% 30.29 in 10.0 mi SSE 9.2 mph - N/A   Clear
7:15 PM 74.1 °F 39.6 °F 29% 30.28 in 10.0 mi SSE 9.2 mph - N/A   Clear
7:35 PM 73.0 °F 39.2 °F 29% 30.28 in 10.0 mi SSE 10.4 mph - N/A   Clear
7:55 PM 72.1 °F 42.4 °F 34% 30.28 in 10.0 mi SSE 6.9 mph - N/A   Clear
8:15 PM 71.1 °F 42.3 °F 35% 30.27 in 10.0 mi SSE 9.2 mph - N/A   Clear
8:35 PM 70.7 °F 45.0 °F 40% 30.28 in 10.0 mi SSE 5.8 mph - N/A   Clear
8:55 PM 68.9 °F 47.7 °F 47% 30.28 in 10.0 mi SSE 6.9 mph - N/A   Clear
9:15 PM 66.6 °F 50.4 °F 56% 30.28 in 10.0 mi SSE 6.9 mph - N/A   Clear
9:35 PM 65.1 °F 51.3 °F 61% 30.28 in 10.0 mi SSE 6.9 mph - N/A   Clear
9:55 PM 64.0 °F 52.3 °F 66% 30.28 in 10.0 mi SSE 6.9 mph - N/A   Clear
10:15 PM 63.7 °F 51.4 °F 64% 30.28 in 10.0 mi SSE 6.9 mph - N/A   Clear
10:35 PM 64.4 °F 49.8 °F 59% 30.28 in 10.0 mi SSE 9.2 mph - N/A   Clear
10:55 PM 63.7 °F 50.0 °F 61% 30.28 in 10.0 mi SSE 9.2 mph - N/A   Clear
11:15 PM 63.0 °F 49.8 °F 62% 30.28 in 10.0 mi SSE 10.4 mph - N/A   Clear
11:35 PM 62.6 °F 49.8 °F 63% 30.27 in 10.0 mi SSE 10.4 mph - N/A   Clear
11:55 PM 61.7 °F 50.4 °F 66% 30.27 in 10.0 mi SSE 9.2 mph - N/A   Clear